Regional Weather Roundup
Issued by NWS

Home | Current Version | Previous Version | Text Only | Print | Product List | Glossary Off
Versions: 1 2 3 4 5 6 7 8 9 10 11 12 13 14 15 16 17 18 19 20 21 22 23 24 25 26 27 28 29 30 31 32 33 34 35 36 37 38 39 40 41 42 43 44 45 46 47 48 49 50

000
ASUS43 KDMX 182207
RWRIA

WEATHER ROUNDUP FOR IOWA
NATIONAL WEATHER SERVICE DES MOINES IA
500 PM CDT SAT APR 18 2015

NOTE: "FAIR" INDICATES FEW OR NO CLOUDS BELOW 12,000 FEET WITH NO
SIGNIFICANT WEATHER AND/OR OBSTRUCTIONS TO VISIBILITY.

* - THESE STATIONS ARE NOT NWS STATIONS...THUS NOT UNDER NWS
QUALITY CONTROL.  THEY ALSO DO NOT REPORT WEATHER SUCH
AS PRECIPITATION OR FOG.

IAZ001>003-012>014-020>022-031>034-043>046-182300-
   NORTHWEST IOWA

CITY           SKY/WX    TMP DP  RH WIND       PRES   REMARKS
CARROLL *      LGT RAIN  57  57 100 NE7       29.89F
CHEROKEE *     DRIZZLE   57  57 100 SE7       29.88S
DENISON *      LGT RAIN  59  59 100 E10       29.86S
LE MARS *      PTSUNNY   61  57  88 E9G16     29.86F
ORANGE CITY *  PTSUNNY  N/A N/A N/A E8        29.86F
SHELDON *      LGT RAIN  57  57 100 E14       29.86S
SIOUX CITY     CLOUDY    62  57  83 SE10      29.84F
SPENCER        RAIN      57  55  93 E7        29.90F FOG
STORM LAKE *   LGT RAIN  57  57 100 SE10      29.91R
$$

IAZ055>058-069>071-079>083-090>094-182300-
   SOUTHWEST IOWA

CITY           SKY/WX    TMP DP  RH WIND       PRES   REMARKS
ATLANTIC *     LGT RAIN  59  59 100 NE8       29.88F
AUDUBON *      RAIN      59  55  88 NE6       29.90S
CLARINDA *     PTSUNNY   61  61 100 E9        29.89S FOG
COUNCIL BLFS * CLOUDY    61  61 100 E7        29.85S
CRESTON *      CLOUDY    61  61 100 NW5       29.90S
HARLAN  *      LGT RAIN  59  59 100 E8        29.91S
LAMONI         LGT RAIN  63  59  87 CALM      29.89F FOG
RED OAK *      LGT RAIN  61  61 100 NE8       29.86F
SHENANDOAH *   CLOUDY    63  61  94 E7        29.87S
$$

IAZ047>049-059>061-072>074-084-182300-
   CENTRAL IOWA

CITY           SKY/WX    TMP DP  RH WIND       PRES   REMARKS
AMES           LGT RAIN  62  58  86 W9        29.87F
ANKENY *       CLOUDY    63  59  88 W3        29.86F
CHARITON *     LGT RAIN  61  59  94 SW8       29.88F
DES MOINES     CLOUDY    64  59  83 W3        29.86F
GRINNELL*      LGT RAIN  64  55  72 S8G28     29.86F
KNOXVILLE *    PTSUNNY   64  59  82 SW12      29.86F
MARSHALLTOWN   TSTM      65  57  75 SE21G41   29.87S VSB 3/4
PELLA *        CLOUDY    68  63  83 W12       29.87F
PERRY *        LGT RAIN  59  57  94 NW7       29.88F
$$

IAZ004>006-015-016-023>025-035-036-182300-
   NORTH CENTRAL IOWA

CITY           SKY/WX    TMP DP  RH WIND       PRES   REMARKS
ALGONA *       LGT RAIN  61  55  82 VRB7      29.90R
CLARION *      RAIN      59  59 100 SW15G25   29.91R
ESTHERVILLE    LGT RAIN  56  53  90 SW16      29.90R
FORT DODGE *   CLOUDY    57  55  94 SW9       29.91F
MASON CITY     TSTM      63  55  75 E14       29.88F
FOREST CITY *  HVY RAIN  59  54  82 E9        29.91R
IOWA FALLS *   LGT RAIN  63  57  82 SW14G24   29.90R
$$

IAZ007>011-017>019-026>030-037>042-050>054-066-182300-
   NORTHEAST IOWA

CITY           SKY/WX    TMP DP  RH WIND       PRES   REMARKS
CEDAR RAPIDS   CLOUDY    76  54  46 SE13      29.87F
CHARLES CITY * PTSUNNY   75  46  35 SE17G26   29.88F
CLINTON *      PTSUNNY   73  46  38 E15       29.96F
DECORAH *      SUNNY     72  41  33 E21G26    29.93S
DUBUQUE        MOSUNNY   73  40  30 E15G24    29.95F
MONTICELLO *   MOSUNNY   72  45  37 E15G21    29.92S
OELWEIN *      SUNNY     73  45  35 E23       29.90F
WATERLOO       CLOUDY    75  52  44 SE12      29.86F
$$

IAZ064-065-067-068-078-182300-
   EAST CENTRAL IOWA

CITY           SKY/WX    TMP DP  RH WIND       PRES   REMARKS
DAVENPORT      PTSUNNY   72  51  47 E17       29.92F
IOWA CITY      CLOUDY    77  54  44 SE15G23   29.88F
MT. PLEASANT * PTSUNNY   77  52  41 SE12      29.87F
MUSCATINE *    MOSUNNY   79  50  36 SE13G21   29.87F
QUAD CITIES    CLOUDY    71  55  56 E18       29.90F
$$

IAZ062-063-075>077-085>089-095>099-182300-
   SOUTHEAST IOWA

CITY           SKY/WX    TMP DP  RH WIND       PRES   REMARKS
BURLINGTON     PTSUNNY   77  54  44 S13       29.87F
FAIRFIELD *    MOSUNNY   77  54  44 SE13G22   29.86F
FORT MADISON * MOSUNNY   79  52  38 SE15G21   29.88F
KEOKUK *       MOSUNNY   79  54  41 S12G18    29.86F
OSKALOOSA *      N/A     75  54  46 S15       29.86F
CENTERVILLE *  RAIN      61  59  94 S16G22    29.91R
OTTUMWA        CLOUDY    74  54  49 SE12      29.85F
WASHINGTON *   SUNNY     79  52  38 S18G24    29.87F
$$

ABBREVIATIONS USED IN REMARKS
   TC - TEMPERATURES IN CELSIUS
  WCI - WIND CHILL INDEX
   HX - HEAT INDEX
  VSB - VISIBILITY
$$




USA.gov is the U.S. government's official web portal to all federal, state and local government web resources and services.